| time (UTC) | temp F | wind direction | speed MPH | gust MPH | rain 1hr in | rain 24hr in | rain mn in | humidity % | barometer mb |
| 20260902155310 | 70 | 272 | 8.0 | 14.0 | 0.00 | 0.00 | 0.00 | 65 | 18.0 |
| 20260902154309 | 70 | 278 | 9.0 | 14.0 | 0.00 | 0.00 | 0.00 | 66 | 18.0 |
| 20260902153310 | 70 | 283 | 10.0 | 18.0 | 0.00 | 0.00 | 0.00 | 63 | 18.1 |
| 20260902152310 | 71 | 290 | 10.0 | 15.0 | 0.00 | 0.00 | 0.00 | 61 | 18.0 |
| 20260902151311 | 71 | 277 | 9.0 | 16.0 | 0.00 | 0.00 | 0.00 | 61 | 18.1 |
| 20260902145310 | 72 | 265 | 8.0 | 17.0 | 0.00 | 0.00 | 0.00 | 59 | 18.2 |
| 20260902144310 | 73 | 310 | 3.0 | 9.0 | 0.00 | 0.00 | 0.00 | 64 | 18.1 |
| 20260902142310 | 72 | 270 | 5.0 | 14.0 | 0.00 | 0.00 | 0.00 | 63 | 18.1 |
| 20260902135310 | 72 | 304 | 7.0 | 13.0 | 0.00 | 0.00 | 0.00 | 66 | 18.4 |
| 20260902134310 | 71 | 256 | 4.0 | 11.0 | 0.00 | 0.00 | 0.00 | 70 | 18.4 |
| 20260902133310 | 69 | 246 | 3.0 | 9.0 | 0.00 | 0.00 | 0.00 | 73 | 18.5 |
| 20260902132310 | 68 | 269 | 3.0 | 4.0 | 0.00 | 0.00 | 0.00 | 76 | 18.5 |
| 20260902125309 | 67 | 0 | 0.0 | 0.0 | 0.00 | 0.00 | 0.00 | 76 | 18.7 |
| 20260902123311 | 67 | 0 | 0.0 | 0.0 | 0.00 | 0.00 | 0.00 | 74 | 18.6 |
| 20260902122310 | 68 | 0 | 0.0 | 0.0 | 0.00 | 0.00 | 0.00 | 73 | 18.6 |
| 20260902121309 | 69 | 0 | 0.0 | 0.0 | 0.00 | 0.00 | 0.00 | 70 | 18.7 |
| 20260902114309 | 72 | 0 | 0.0 | 0.0 | 0.00 | 0.00 | 0.00 | 65 | 18.6 |
| 20260902113310 | 72 | 0 | 0.0 | 0.0 | 0.00 | 0.00 | 0.00 | 64 | 18.4 |
| 20260902112310 | 72 | 0 | 0.0 | 0.0 | 0.00 | 0.00 | 0.00 | 64 | 18.6 |
| 20260902111309 | 72 | 0 | 0.0 | 0.0 | 0.00 | 0.00 | 0.00 | 68 | 18.7 |
| 20260902105310 | 71 | 0 | 0.0 | 0.0 | 0.00 | 0.00 | 0.00 | 72 | 18.6 |
| 20260902024312 | 56 | 213 | 0.0 | 1.0 | 0.00 | 0.00 | 0.00 | 87 | 17.8 |
| 20260902021311 | 56 | 212 | 0.0 | 1.0 | 0.00 | 0.00 | 0.00 | 87 | 18.2 |
| 20260902020312 | 56 | 213 | 0.0 | 2.0 | 0.00 | 0.00 | 0.00 | 87 | 18.1 |
| 20260902014311 | 56 | 213 | 0.0 | 2.0 | 0.00 | 0.00 | 0.00 | 87 | 18.1 |
| 20260902013312 | 56 | 194 | 0.0 | 4.0 | 0.00 | 0.00 | 0.00 | 87 | 18.2 |
| 20260902012312 | 56 | 220 | 1.0 | 2.0 | 0.00 | 0.00 | 0.00 | 87 | 18.3 |
| 20260902010311 | 56 | 238 | 0.0 | 2.0 | 0.00 | 0.00 | 0.00 | 87 | 18.1 |
| 20260902005311 | 56 | 246 | 0.0 | 2.0 | 0.00 | 0.00 | 0.00 | 87 | 18.0 |
| 20260902004311 | 56 | 244 | 0.0 | 1.0 | 0.00 | 0.00 | 0.00 | 86 | 18.0 |
| 20260902002311 | 56 | 288 | 0.0 | 0.0 | 0.00 | 0.00 | 0.00 | 86 | 18.2 |
| 20260902001311 | 56 | 288 | 0.0 | 0.0 | 0.00 | 0.00 | 0.00 | 86 | 18.2 |
| 20260902000312 | 56 | 288 | 0.0 | 0.0 | 0.00 | 0.00 | 0.00 | 85 | 18.2 |
| 20260901235310 | 57 | 288 | 0.0 | 0.0 | 0.00 | 0.00 | 0.00 | 85 | 18.3 |
| 20260901234310 | 57 | 288 | 0.0 | 0.0 | 0.00 | 0.00 | 0.00 | 85 | 18.4 |
| 20260901233311 | 57 | 288 | 0.0 | 0.0 | 0.00 | 0.00 | 0.00 | 85 | 18.5 |
| 20260901232311 | 57 | 288 | 0.0 | 0.0 | 0.00 | 0.00 | 0.00 | 84 | 18.5 |
| 20260901231311 | 58 | 288 | 0.0 | 0.0 | 0.00 | 0.00 | 0.00 | 84 | 18.6 |
| 20260901230311 | 58 | 288 | 0.0 | 0.0 | 0.00 | 0.00 | 0.00 | 84 | 18.7 |
| 20260901224310 | 58 | 288 | 0.0 | 0.0 | 0.00 | 0.00 | 0.00 | 83 | 18.6 |
| 20260901223310 | 58 | 288 | 0.0 | 0.0 | 0.00 | 0.00 | 0.00 | 83 | 18.8 |
| 20260901222311 | 58 | 288 | 0.0 | 0.0 | 0.00 | 0.00 | 0.00 | 83 | 18.8 |
| 20260901220311 | 58 | 288 | 0.0 | 0.0 | 0.00 | 0.00 | 0.00 | 83 | 18.7 |
| 20260901215311 | 58 | 288 | 0.0 | 0.0 | 0.00 | 0.00 | 0.00 | 83 | 18.4 |
| 20260901214311 | 58 | 288 | 1.0 | 1.0 | 0.00 | 0.00 | 0.00 | 83 | 18.5 |
| 20260901213311 | 58 | 288 | 0.0 | 0.0 | 0.00 | 0.00 | 0.00 | 82 | 19.1 |
| 20260901212314 | 58 | 288 | 0.0 | 0.0 | 0.00 | 0.00 | 0.00 | 83 | 19.1 |
| 20260901211311 | 58 | 288 | 0.0 | 0.0 | 0.00 | 0.00 | 0.00 | 82 | 19.1 |
| 20260901205311 | 58 | 288 | 0.0 | 0.0 | 0.00 | 0.00 | 0.00 | 81 | 19.1 |
| 20260901204311 | 59 | 288 | 0.0 | 0.0 | 0.00 | 0.00 | 0.00 | 80 | 19.0 |
| 20260901203311 | 59 | 288 | 0.0 | 0.0 | 0.00 | 0.00 | 0.00 | 80 | 19.0 |
| 20260901202311 | 59 | 288 | 0.0 | 0.0 | 0.00 | 0.00 | 0.00 | 80 | 19.0 |
| 20260901195311 | 60 | 288 | 0.0 | 0.0 | 0.00 | 0.00 | 0.00 | 77 | 18.8 |
| 20260901194311 | 60 | 288 | 0.0 | 0.0 | 0.00 | 0.00 | 0.00 | 77 | 18.7 |
| 20260901193311 | 61 | 288 | 0.0 | 0.0 | 0.00 | 0.00 | 0.00 | 75 | 18.7 |
| 20260901192311 | 61 | 288 | 0.0 | 0.0 | 0.00 | 0.00 | 0.00 | 74 | 18.7 |
| 20260901191311 | 62 | 288 | 0.0 | 0.0 | 0.00 | 0.00 | 0.00 | 73 | 18.7 |
| 20260901190311 | 62 | 288 | 0.0 | 1.0 | 0.00 | 0.00 | 0.00 | 72 | 18.9 |
| 20260901185310 | 63 | 288 | 0.0 | 1.0 | 0.00 | 0.00 | 0.00 | 70 | 18.8 |
| 20260901184311 | 64 | 288 | 0.0 | 1.0 | 0.00 | 0.00 | 0.00 | 69 | 18.8 |
| 20260901183311 | 64 | 288 | 0.0 | 0.0 | 0.00 | 0.00 | 0.00 | 68 | 18.7 |
| 20260901182311 | 65 | 288 | 0.0 | 3.0 | 0.00 | 0.00 | 0.00 | 66 | 18.6 |
| 20260901181310 | 66 | 303 | 1.0 | 4.0 | 0.00 | 0.00 | 0.00 | 65 | 18.6 |
| 20260901180311 | 66 | 304 | 1.0 | 6.0 | 0.00 | 0.00 | 0.00 | 64 | 18.6 |
| 20260901175311 | 67 | 321 | 1.0 | 4.0 | 0.00 | 0.00 | 0.00 | 63 | 18.6 |
| 20260901174311 | 67 | 271 | 4.0 | 8.0 | 0.00 | 0.00 | 0.00 | 60 | 18.7 |
| 20260901173310 | 68 | 290 | 1.0 | 6.0 | 0.00 | 0.00 | 0.00 | 60 | 18.7 |
| 20260901172311 | 69 | 286 | 3.0 | 7.0 | 0.00 | 0.00 | 0.00 | 58 | 18.7 |
| 20260901171311 | 70 | 310 | 1.0 | 7.0 | 0.00 | 0.00 | 0.00 | 59 | 18.8 |
| 20260901165311 | 70 | 343 | 4.0 | 9.0 | 0.00 | 0.00 | 0.00 | 55 | 18.8 |
| 20260901164310 | 70 | 273 | 3.0 | 8.0 | 0.00 | 0.00 | 0.00 | 55 | 18.7 |
| 20260901163311 | 70 | 322 | 4.0 | 8.0 | 0.00 | 0.00 | 0.00 | 55 | 18.6 |
| 20260901162311 | 70 | 240 | 3.0 | 10.0 | 0.00 | 0.00 | 0.00 | 56 | 18.6 |
| 20260901161310 | 71 | 320 | 6.0 | 10.0 | 0.00 | 0.00 | 0.00 | 55 | 18.6 |